Time,TemperatureF,DewpointF,PressureIn,WindDirection,WindDirectionDegrees,WindSpeedMPH,WindSpeedGustMPH,Humidity,HourlyPrecipIn,Conditions,Clouds,dailyrainin,SoftwareType,DateUTC
2013-02-06 00:02:00,50.3,34.7,30.00,East,83,0.0,0.0,55,0.00,,,0.00,Wunderground v.1.15,2013-02-06 06:02:00,
2013-02-06 00:08:00,50.2,34.6,30.00,East,83,0.0,0.0,55,0.00,,,0.00,Wunderground v.1.15,2013-02-06 06:08:00,
2013-02-06 00:14:00,49.7,34.6,30.00,East,83,0.0,0.0,56,0.00,,,0.00,Wunderground v.1.15,2013-02-06 06:14:00,
2013-02-06 00:20:00,49.2,34.2,30.00,East,83,0.0,0.0,56,0.00,,,0.00,Wunderground v.1.15,2013-02-06 06:20:00,
2013-02-06 00:26:00,48.6,34.5,30.00,East,83,0.0,0.0,58,0.00,,,0.00,Wunderground v.1.15,2013-02-06 06:26:00,
2013-02-06 00:32:00,48.1,34.4,30.00,East,83,0.0,0.0,59,0.00,,,0.00,Wunderground v.1.15,2013-02-06 06:32:00,
2013-02-06 00:39:00,47.8,34.6,30.00,East,83,0.0,0.0,60,0.00,,,0.00,Wunderground v.1.15,2013-02-06 06:39:00,
2013-02-06 00:44:00,47.5,34.7,30.00,East,83,0.0,0.0,61,0.00,,,0.00,Wunderground v.1.15,2013-02-06 06:44:00,
2013-02-06 00:50:00,47.4,34.6,30.01,East,83,0.0,0.0,61,0.00,,,0.00,Wunderground v.1.15,2013-02-06 06:50:00,
2013-02-06 00:56:00,47.3,34.5,30.00,East,83,0.0,0.0,61,0.00,,,0.00,Wunderground v.1.15,2013-02-06 06:56:00,
2013-02-06 01:02:00,47.2,34.4,30.00,East,83,0.0,0.0,61,0.00,,,0.00,Wunderground v.1.15,2013-02-06 07:02:00,
2013-02-06 01:09:00,47.0,34.2,30.00,East,83,0.0,0.0,61,0.00,,,0.00,Wunderground v.1.15,2013-02-06 07:09:00,
2013-02-06 01:14:00,46.6,34.3,30.00,East,83,0.0,0.0,62,0.00,,,0.00,Wunderground v.1.15,2013-02-06 07:14:00,
2013-02-06 01:20:00,46.2,34.3,30.00,East,83,0.0,0.0,63,0.00,,,0.00,Wunderground v.1.15,2013-02-06 07:20:00,
2013-02-06 01:26:00,46.1,34.2,30.00,East,83,0.0,0.0,63,0.00,,,0.00,Wunderground v.1.15,2013-02-06 07:26:00,
2013-02-06 01:32:00,46.2,34.3,30.00,East,83,0.0,0.0,63,0.00,,,0.00,Wunderground v.1.15,2013-02-06 07:32:00,
2013-02-06 01:39:00,46.3,34.8,30.00,East,83,0.0,0.0,64,0.00,,,0.00,Wunderground v.1.15,2013-02-06 07:39:00,
2013-02-06 01:44:00,46.5,34.6,30.00,East,83,0.0,0.0,63,0.00,,,0.00,Wunderground v.1.15,2013-02-06 07:44:00,
2013-02-06 01:50:00,47.0,34.6,30.00,East,83,0.0,0.0,62,0.00,,,0.00,Wunderground v.1.15,2013-02-06 07:50:00,
2013-02-06 01:56:00,47.3,34.9,30.00,East,83,0.0,0.0,62,0.00,,,0.00,Wunderground v.1.15,2013-02-06 07:56:00,
2013-02-06 02:02:00,47.4,34.6,30.00,East,83,0.0,0.0,61,0.00,,,0.00,Wunderground v.1.15,2013-02-06 08:02:00,
2013-02-06 02:08:00,47.3,34.5,30.00,East,83,0.0,0.0,61,0.00,,,0.00,Wunderground v.1.15,2013-02-06 08:08:00,
2013-02-06 02:14:00,47.0,34.6,30.00,East,83,0.0,0.0,62,0.00,,,0.00,Wunderground v.1.15,2013-02-06 08:14:00,
2013-02-06 02:20:00,46.6,34.3,30.00,East,83,0.0,0.0,62,0.00,,,0.00,Wunderground v.1.15,2013-02-06 08:20:00,
2013-02-06 02:26:00,46.1,34.2,29.99,East,83,0.0,0.0,63,0.00,,,0.00,Wunderground v.1.15,2013-02-06 08:26:00,
2013-02-06 02:32:00,45.6,34.1,29.99,East,83,0.0,0.0,64,0.00,,,0.00,Wunderground v.1.15,2013-02-06 08:32:00,
2013-02-06 02:38:00,45.1,34.0,30.00,East,83,0.0,0.0,65,0.00,,,0.00,Wunderground v.1.15,2013-02-06 08:38:00,
2013-02-06 02:44:00,45.0,34.3,29.99,East,83,0.0,0.0,66,0.00,,,0.00,Wunderground v.1.15,2013-02-06 08:44:00,
2013-02-06 02:50:00,45.1,34.4,29.99,East,83,0.0,0.0,66,0.00,,,0.00,Wunderground v.1.15,2013-02-06 08:50:00,
2013-02-06 02:56:00,45.3,34.2,29.99,East,83,0.0,0.0,65,0.00,,,0.00,Wunderground v.1.15,2013-02-06 08:56:00,
2013-02-06 03:02:00,45.3,34.2,29.99,East,83,0.0,0.0,65,0.00,,,0.00,Wunderground v.1.15,2013-02-06 09:02:00,
2013-02-06 03:09:00,45.0,34.3,29.99,East,83,0.0,0.0,66,0.00,,,0.00,Wunderground v.1.15,2013-02-06 09:09:00,
2013-02-06 03:14:00,44.8,34.1,29.99,East,83,0.0,0.0,66,0.00,,,0.00,Wunderground v.1.15,2013-02-06 09:14:00,
2013-02-06 03:20:00,44.3,33.7,29.99,East,83,0.0,0.0,66,0.00,,,0.00,Wunderground v.1.15,2013-02-06 09:20:00,
2013-02-06 03:26:00,43.8,33.9,29.99,East,83,0.0,0.0,68,0.00,,,0.00,Wunderground v.1.15,2013-02-06 09:26:00,
2013-02-06 03:32:00,43.4,33.5,29.99,East,83,0.0,0.0,68,0.00,,,0.00,Wunderground v.1.15,2013-02-06 09:32:00,
2013-02-06 03:39:00,43.1,33.6,29.99,East,83,0.0,0.0,69,0.00,,,0.00,Wunderground v.1.15,2013-02-06 09:39:00,
2013-02-06 03:44:00,43.0,33.9,29.98,East,83,0.0,0.0,70,0.00,,,0.00,Wunderground v.1.15,2013-02-06 09:44:00,
2013-02-06 03:50:00,43.0,33.9,29.98,East,83,0.0,0.0,70,0.00,,,0.00,Wunderground v.1.15,2013-02-06 09:50:00,
2013-02-06 03:56:00,42.9,33.8,29.98,East,83,0.0,0.0,70,0.00,,,0.00,Wunderground v.1.15,2013-02-06 09:56:00,
2013-02-06 04:02:00,42.8,33.7,29.98,East,83,0.0,0.0,70,0.00,,,0.00,Wunderground v.1.15,2013-02-06 10:02:00,
2013-02-06 04:09:00,42.9,33.8,29.98,East,83,0.0,0.0,70,0.00,,,0.00,Wunderground v.1.15,2013-02-06 10:09:00,
2013-02-06 04:14:00,42.9,34.1,29.98,East,83,0.0,0.0,71,0.00,,,0.00,Wunderground v.1.15,2013-02-06 10:14:00,
2013-02-06 04:20:00,42.7,33.6,29.98,East,83,0.0,0.0,70,0.00,,,0.00,Wunderground v.1.15,2013-02-06 10:20:00,
2013-02-06 04:26:00,42.4,33.7,29.99,East,83,0.0,0.0,71,0.00,,,0.00,Wunderground v.1.15,2013-02-06 10:26:00,
2013-02-06 04:32:00,42.2,33.5,29.99,East,83,0.0,0.0,71,0.00,,,0.00,Wunderground v.1.15,2013-02-06 10:32:00,
2013-02-06 04:39:00,42.0,33.6,29.99,East,83,0.0,0.0,72,0.00,,,0.00,Wunderground v.1.15,2013-02-06 10:39:00,
2013-02-06 04:44:00,41.8,33.4,29.99,East,83,0.0,0.0,72,0.00,,,0.00,Wunderground v.1.15,2013-02-06 10:44:00,
2013-02-06 04:50:00,41.6,33.2,29.99,East,83,0.0,0.0,72,0.00,,,0.00,Wunderground v.1.15,2013-02-06 10:50:00,
2013-02-06 04:56:00,41.6,33.2,29.99,East,83,0.0,0.0,72,0.00,,,0.00,Wunderground v.1.15,2013-02-06 10:56:00,
2013-02-06 05:02:00,41.6,33.2,29.99,East,83,0.0,0.0,72,0.00,,,0.00,Wunderground v.1.15,2013-02-06 11:02:00,
2013-02-06 05:09:00,41.3,33.0,30.00,East,83,0.0,0.0,72,0.00,,,0.00,Wunderground v.1.15,2013-02-06 11:09:00,
2013-02-06 05:14:00,41.0,33.0,30.00,East,83,0.0,0.0,73,0.00,,,0.00,Wunderground v.1.15,2013-02-06 11:14:00,
2013-02-06 05:20:00,41.1,33.1,30.00,East,83,0.0,0.0,73,0.00,,,0.00,Wunderground v.1.15,2013-02-06 11:20:00,
2013-02-06 05:26:00,41.1,33.4,30.00,East,83,0.0,0.0,74,0.00,,,0.00,Wunderground v.1.15,2013-02-06 11:26:00,
2013-02-06 05:32:00,41.1,33.1,29.99,East,83,0.0,0.0,73,0.00,,,0.00,Wunderground v.1.15,2013-02-06 11:32:00,
2013-02-06 05:39:00,41.4,33.7,29.99,East,83,0.0,0.0,74,0.00,,,0.00,Wunderground v.1.15,2013-02-06 11:39:00,
2013-02-06 05:44:00,42.0,34.0,29.99,East,83,0.0,0.0,73,0.00,,,0.00,Wunderground v.1.15,2013-02-06 11:44:00,
2013-02-06 05:50:00,42.3,33.9,29.99,East,83,0.0,0.0,72,0.00,,,0.00,Wunderground v.1.15,2013-02-06 11:50:00,
2013-02-06 05:56:00,42.4,34.0,30.00,East,83,0.0,0.0,72,0.00,,,0.00,Wunderground v.1.15,2013-02-06 11:56:00,
2013-02-06 06:02:00,42.4,34.0,30.00,East,83,0.0,0.0,72,0.00,,,0.00,Wunderground v.1.15,2013-02-06 12:02:00,
2013-02-06 06:09:00,42.2,33.8,30.00,East,83,0.0,0.0,72,0.00,,,0.00,Wunderground v.1.15,2013-02-06 12:09:00,
2013-02-06 06:14:00,42.0,33.6,29.99,East,83,0.0,0.0,72,0.00,,,0.00,Wunderground v.1.15,2013-02-06 12:14:00,
2013-02-06 06:20:00,41.9,33.5,29.99,East,83,0.0,0.0,72,0.00,,,0.00,Wunderground v.1.15,2013-02-06 12:20:00,
2013-02-06 06:26:00,41.8,33.8,29.99,East,83,0.0,0.0,73,0.00,,,0.00,Wunderground v.1.15,2013-02-06 12:26:00,
2013-02-06 06:32:00,41.8,33.8,29.99,East,83,0.0,0.0,73,0.00,,,0.00,Wunderground v.1.15,2013-02-06 12:32:00,
2013-02-06 06:39:00,41.8,33.8,30.00,East,83,0.0,0.0,73,0.00,,,0.00,Wunderground v.1.15,2013-02-06 12:39:00,
2013-02-06 06:44:00,41.8,33.8,29.99,East,83,0.0,0.0,73,0.00,,,0.00,Wunderground v.1.15,2013-02-06 12:44:00,
2013-02-06 06:50:00,42.0,34.0,29.99,East,83,0.0,0.0,73,0.00,,,0.00,Wunderground v.1.15,2013-02-06 12:50:00,
2013-02-06 06:56:00,41.9,33.9,29.99,East,83,0.0,0.0,73,0.00,,,0.00,Wunderground v.1.15,2013-02-06 12:56:00,
2013-02-06 07:02:00,41.7,33.7,30.00,East,83,0.0,0.0,73,0.00,,,0.00,Wunderground v.1.15,2013-02-06 13:02:00,
2013-02-06 07:09:00,41.5,33.5,30.00,East,83,0.0,0.0,73,0.00,,,0.00,Wunderground v.1.15,2013-02-06 13:09:00,
2013-02-06 07:14:00,41.5,33.5,29.99,East,83,0.0,0.0,73,0.00,,,0.00,Wunderground v.1.15,2013-02-06 13:14:00,
2013-02-06 07:20:00,41.4,33.4,30.00,East,83,0.0,0.0,73,0.00,,,0.00,Wunderground v.1.15,2013-02-06 13:20:00,
2013-02-06 07:26:00,41.5,33.8,30.00,East,83,0.0,0.0,74,0.00,,,0.00,Wunderground v.1.15,2013-02-06 13:26:00,
2013-02-06 07:32:00,41.6,33.9,30.00,East,83,0.0,0.0,74,0.00,,,0.00,Wunderground v.1.15,2013-02-06 13:32:00,
2013-02-06 07:39:00,41.8,34.1,30.00,East,83,0.0,0.0,74,0.00,,,0.00,Wunderground v.1.15,2013-02-06 13:39:00,
2013-02-06 07:44:00,42.2,35.2,30.00,East,83,0.0,1.0,76,0.00,,,0.00,Wunderground v.1.15,2013-02-06 13:44:00,
2013-02-06 07:50:00,43.3,36.9,30.00,East,83,0.0,0.0,78,0.00,,,0.00,Wunderground v.1.15,2013-02-06 13:50:00,
2013-02-06 07:56:00,44.2,38.1,30.00,East,83,0.0,0.0,79,0.00,,,0.00,Wunderground v.1.15,2013-02-06 13:56:00,
2013-02-06 08:02:00,45.1,39.0,30.00,East,83,0.0,0.0,79,0.00,,,0.00,Wunderground v.1.15,2013-02-06 14:02:00,
2013-02-06 08:09:00,45.2,37.7,30.00,East,83,0.0,0.0,75,0.00,,,0.00,Wunderground v.1.15,2013-02-06 14:09:00,
2013-02-06 08:14:00,45.5,38.0,30.00,East,83,0.0,0.0,75,0.00,,,0.00,Wunderground v.1.15,2013-02-06 14:14:00,
2013-02-06 08:20:00,46.2,39.1,30.00,East,83,0.0,0.0,76,0.00,,,0.00,Wunderground v.1.15,2013-02-06 14:20:00,
2013-02-06 08:26:00,46.9,39.4,30.00,East,83,0.0,0.0,75,0.00,,,0.00,Wunderground v.1.15,2013-02-06 14:26:00,
2013-02-06 08:32:00,47.8,40.6,30.00,East,83,0.0,0.0,76,0.00,,,0.00,Wunderground v.1.15,2013-02-06 14:32:00,
2013-02-06 08:39:00,48.5,40.9,30.01,East,86,0.0,2.0,75,0.00,,,0.00,Wunderground v.1.15,2013-02-06 14:39:00,
2013-02-06 08:44:00,48.8,40.9,30.01,East,86,0.0,0.0,74,0.00,,,0.00,Wunderground v.1.15,2013-02-06 14:44:00,
2013-02-06 08:50:00,49.4,41.1,30.01,East,86,0.0,0.0,73,0.00,,,0.00,Wunderground v.1.15,2013-02-06 14:50:00,
2013-02-06 08:56:00,50.5,41.8,30.00,East,86,0.0,0.0,72,0.00,,,0.00,Wunderground v.1.15,2013-02-06 14:56:00,
2013-02-06 09:02:00,51.2,42.5,30.00,SE,134,1.0,2.0,72,0.00,,,0.00,Wunderground v.1.15,2013-02-06 15:02:00,
2013-02-06 09:09:00,51.4,42.7,30.00,SE,138,2.0,4.0,72,0.00,,,0.00,Wunderground v.1.15,2013-02-06 15:09:00,
2013-02-06 09:14:00,51.9,42.8,30.00,SSE,158,4.0,4.0,71,0.00,,,0.00,Wunderground v.1.15,2013-02-06 15:14:00,
2013-02-06 09:20:00,52.6,43.5,30.00,SSE,159,5.0,5.0,71,0.00,,,0.00,Wunderground v.1.15,2013-02-06 15:20:00,
2013-02-06 09:26:00,53.4,43.5,30.00,SE,130,5.0,5.0,69,0.00,,,0.00,Wunderground v.1.15,2013-02-06 15:26:00,
2013-02-06 09:32:00,53.1,43.2,30.00,SSE,150,5.0,6.0,69,0.00,,,0.00,Wunderground v.1.15,2013-02-06 15:32:00,
2013-02-06 09:39:00,52.8,42.9,30.00,South,173,5.0,6.0,69,0.00,,,0.00,Wunderground v.1.15,2013-02-06 15:39:00,
2013-02-06 09:44:00,52.7,42.8,30.00,ESE,109,5.0,10.0,69,0.00,,,0.00,Wunderground v.1.15,2013-02-06 15:44:00,
2013-02-06 09:50:00,52.7,42.8,30.00,SSE,159,5.0,9.0,69,0.00,,,0.00,Wunderground v.1.15,2013-02-06 15:50:00,
2013-02-06 09:56:00,53.1,43.2,30.00,SE,136,5.0,9.0,69,0.00,,,0.00,Wunderground v.1.15,2013-02-06 15:56:00,
2013-02-06 10:02:00,54.2,43.5,30.00,SE,134,4.0,4.0,67,0.00,,,0.00,Wunderground v.1.15,2013-02-06 16:02:00,
2013-02-06 10:08:00,55.0,43.8,30.00,South,183,4.0,5.0,66,0.00,,,0.00,Wunderground v.1.15,2013-02-06 16:08:00,
2013-02-06 10:14:00,55.6,44.0,30.00,South,178,3.0,6.0,65,0.00,,,0.00,Wunderground v.1.15,2013-02-06 16:14:00,
2013-02-06 10:20:00,56.0,44.0,30.00,SSE,161,3.0,3.0,64,0.00,,,0.00,Wunderground v.1.15,2013-02-06 16:20:00,
2013-02-06 10:26:00,56.7,44.2,29.99,South,175,4.0,6.0,63,0.00,,,0.00,Wunderground v.1.15,2013-02-06 16:26:00,
2013-02-06 10:32:00,57.7,44.8,30.00,SSE,159,4.0,4.0,62,0.00,,,0.00,Wunderground v.1.15,2013-02-06 16:32:00,
2013-02-06 10:39:00,58.7,45.3,29.99,SSE,167,3.0,9.0,61,0.00,,,0.00,Wunderground v.1.15,2013-02-06 16:39:00,
2013-02-06 10:44:00,58.8,44.9,29.99,SSE,164,4.0,5.0,60,0.00,,,0.00,Wunderground v.1.15,2013-02-06 16:44:00,
2013-02-06 10:50:00,58.9,45.0,29.99,SSW,193,5.0,5.0,60,0.00,,,0.00,Wunderground v.1.15,2013-02-06 16:50:00,
2013-02-06 10:56:00,59.4,45.1,29.99,SE,145,5.0,5.0,59,0.00,,,0.00,Wunderground v.1.15,2013-02-06 16:56:00,
2013-02-06 11:02:00,59.4,45.1,29.98,South,187,5.0,5.0,59,0.00,,,0.00,Wunderground v.1.15,2013-02-06 17:02:00,
2013-02-06 11:08:00,59.5,44.7,29.98,SSE,163,7.0,7.0,58,0.00,,,0.00,Wunderground v.1.15,2013-02-06 17:08:00,
2013-02-06 11:14:00,59.6,44.8,29.98,South,180,7.0,7.0,58,0.00,,,0.00,Wunderground v.1.15,2013-02-06 17:14:00,
2013-02-06 11:20:00,59.0,43.8,29.98,SSE,163,6.0,6.0,57,0.00,,,0.00,Wunderground v.1.15,2013-02-06 17:20:00,
2013-02-06 11:26:00,58.4,44.1,29.98,SSE,163,5.0,12.0,59,0.00,,,0.00,Wunderground v.1.15,2013-02-06 17:26:00,
2013-02-06 11:32:00,57.7,43.5,29.98,South,175,5.0,6.0,59,0.00,,,0.00,Wunderground v.1.15,2013-02-06 17:32:00,
2013-02-06 11:39:00,57.5,43.3,29.97,South,182,5.0,7.0,59,0.00,,,0.00,Wunderground v.1.15,2013-02-06 17:39:00,
2013-02-06 11:44:00,57.5,43.3,29.97,South,173,5.0,9.0,59,0.00,,,0.00,Wunderground v.1.15,2013-02-06 17:44:00,
2013-02-06 11:50:00,57.9,43.7,29.96,SSE,150,4.0,4.0,59,0.00,,,0.00,Wunderground v.1.15,2013-02-06 17:50:00,
2013-02-06 11:56:00,58.1,43.4,29.96,SE,132,4.0,6.0,58,0.00,,,0.00,Wunderground v.1.15,2013-02-06 17:56:00,
2013-02-06 12:02:00,58.2,43.5,29.95,SSE,157,4.0,4.0,58,0.00,,,0.00,Wunderground v.1.15,2013-02-06 18:02:00,
2013-02-06 12:09:00,58.7,44.0,29.95,South,178,3.0,6.0,58,0.00,,,0.00,Wunderground v.1.15,2013-02-06 18:09:00,
2013-02-06 12:14:00,59.0,43.8,29.94,SE,137,4.0,7.0,57,0.00,,,0.00,Wunderground v.1.15,2013-02-06 18:14:00,
2013-02-06 12:20:00,59.0,44.2,29.94,SE,139,5.0,5.0,58,0.00,,,0.00,Wunderground v.1.15,2013-02-06 18:20:00,
2013-02-06 12:26:00,59.3,44.5,29.94,SSE,149,4.0,6.0,58,0.00,,,0.00,Wunderground v.1.15,2013-02-06 18:26:00,
2013-02-06 12:32:00,60.0,44.7,29.94,South,172,4.0,6.0,57,0.00,,,0.00,Wunderground v.1.15,2013-02-06 18:32:00,
2013-02-06 12:39:00,60.5,45.6,29.93,South,169,4.0,7.0,58,0.00,,,0.00,Wunderground v.1.15,2013-02-06 18:39:00,
2013-02-06 12:44:00,60.5,45.6,29.93,SSW,194,5.0,11.0,58,0.00,,,0.00,Wunderground v.1.15,2013-02-06 18:44:00,
2013-02-06 12:50:00,60.5,46.1,29.92,SSE,148,6.0,6.0,59,0.00,,,0.00,Wunderground v.1.15,2013-02-06 18:50:00,
2013-02-06 12:56:00,60.9,46.5,29.92,SSE,165,5.0,7.0,59,0.00,,,0.00,Wunderground v.1.15,2013-02-06 18:56:00,
2013-02-06 13:02:00,61.5,46.6,29.91,SSE,168,3.0,5.0,58,0.00,,,0.00,Wunderground v.1.15,2013-02-06 19:02:00,
2013-02-06 13:09:00,62.2,47.7,29.90,SSE,158,5.0,8.0,59,0.00,,,0.00,Wunderground v.1.15,2013-02-06 19:09:00,
2013-02-06 13:14:00,62.8,48.3,29.90,South,173,6.0,8.0,59,0.00,,,0.00,Wunderground v.1.15,2013-02-06 19:14:00,
2013-02-06 13:20:00,63.4,48.8,29.90,SE,142,7.0,11.0,59,0.00,,,0.00,Wunderground v.1.15,2013-02-06 19:20:00,
2013-02-06 13:26:00,63.8,48.7,29.89,SSE,158,8.0,11.0,58,0.00,,,0.00,Wunderground v.1.15,2013-02-06 19:26:00,
2013-02-06 13:32:00,64.3,48.7,29.89,SSE,156,8.0,12.0,57,0.00,,,0.00,Wunderground v.1.15,2013-02-06 19:32:00,
2013-02-06 13:39:00,64.0,48.9,29.88,South,183,9.0,12.0,58,0.00,,,0.00,Wunderground v.1.15,2013-02-06 19:39:00,
2013-02-06 13:44:00,64.4,49.3,29.88,South,180,7.0,10.0,58,0.00,,,0.00,Wunderground v.1.15,2013-02-06 19:44:00,
2013-02-06 13:50:00,64.1,49.5,29.88,SSW,203,8.0,8.0,59,0.00,,,0.00,Wunderground v.1.15,2013-02-06 19:50:00,
2013-02-06 13:56:00,63.4,49.7,29.88,SE,134,9.0,9.0,61,0.00,,,0.00,Wunderground v.1.15,2013-02-06 19:56:00,
2013-02-06 14:02:00,63.1,49.9,29.88,South,186,8.0,9.0,62,0.00,,,0.00,Wunderground v.1.15,2013-02-06 20:02:00,
2013-02-06 14:08:00,63.0,50.2,29.87,SSW,196,8.0,12.0,63,0.00,,,0.00,Wunderground v.1.15,2013-02-06 20:08:00,
2013-02-06 14:14:00,63.1,50.3,29.87,South,179,7.0,13.0,63,0.00,,,0.00,Wunderground v.1.15,2013-02-06 20:14:00,
2013-02-06 14:20:00,62.9,50.1,29.87,SSE,148,7.0,7.0,63,0.00,,,0.00,Wunderground v.1.15,2013-02-06 20:20:00,
2013-02-06 14:26:00,63.2,50.8,29.86,South,184,8.0,13.0,64,0.00,,,0.00,Wunderground v.1.15,2013-02-06 20:26:00,
2013-02-06 14:32:00,64.0,51.1,29.86,South,178,6.0,8.0,63,0.00,,,0.00,Wunderground v.1.15,2013-02-06 20:32:00,
2013-02-06 14:38:00,64.1,51.2,29.86,South,178,7.0,10.0,63,0.00,,,0.00,Wunderground v.1.15,2013-02-06 20:38:00,
2013-02-06 14:44:00,64.2,50.9,29.86,South,189,7.0,10.0,62,0.00,,,0.00,Wunderground v.1.15,2013-02-06 20:44:00,
2013-02-06 14:50:00,63.9,51.1,29.86,SSW,198,7.0,15.0,63,0.00,,,0.00,Wunderground v.1.15,2013-02-06 20:50:00,
2013-02-06 14:56:00,63.4,51.0,29.86,South,181,10.0,15.0,64,0.00,,,0.00,Wunderground v.1.15,2013-02-06 20:56:00,
2013-02-06 15:02:00,63.5,50.7,29.86,SSE,164,9.0,13.0,63,0.00,,,0.00,Wunderground v.1.15,2013-02-06 21:02:00,
2013-02-06 15:09:00,62.7,50.8,29.86,SE,139,10.0,13.0,65,0.00,,,0.00,Wunderground v.1.15,2013-02-06 21:09:00,
2013-02-06 15:14:00,62.8,50.4,29.85,South,186,9.0,15.0,64,0.00,,,0.00,Wunderground v.1.15,2013-02-06 21:14:00,
2013-02-06 15:20:00,63.1,50.7,29.85,SSE,165,6.0,6.0,64,0.00,,,0.00,Wunderground v.1.15,2013-02-06 21:20:00,
2013-02-06 15:26:00,63.2,50.8,29.85,South,186,5.0,9.0,64,0.00,,,0.00,Wunderground v.1.15,2013-02-06 21:26:00,
2013-02-06 15:32:00,63.2,51.2,29.85,South,183,6.0,6.0,65,0.00,,,0.00,Wunderground v.1.15,2013-02-06 21:32:00,
2013-02-06 15:39:00,63.4,51.8,29.85,SSW,196,6.0,7.0,66,0.00,,,0.00,Wunderground v.1.15,2013-02-06 21:39:00,
2013-02-06 15:44:00,63.2,51.6,29.85,SSE,163,7.0,8.0,66,0.00,,,0.00,Wunderground v.1.15,2013-02-06 21:44:00,
2013-02-06 15:50:00,63.0,51.5,29.85,South,183,8.0,10.0,66,0.00,,,0.00,Wunderground v.1.15,2013-02-06 21:50:00,
2013-02-06 15:56:00,62.7,51.2,29.84,South,188,8.0,10.0,66,0.00,,,0.00,Wunderground v.1.15,2013-02-06 21:56:00,
2013-02-06 16:02:00,62.7,50.8,29.85,SSE,149,6.0,7.0,65,0.00,,,0.00,Wunderground v.1.15,2013-02-06 22:02:00,
2013-02-06 16:09:00,62.6,50.2,29.85,South,185,7.0,12.0,64,0.00,,,0.00,Wunderground v.1.15,2013-02-06 22:09:00,
2013-02-06 16:14:00,62.7,50.3,29.85,South,191,8.0,13.0,64,0.00,,,0.00,Wunderground v.1.15,2013-02-06 22:14:00,
2013-02-06 16:20:00,62.7,49.9,29.85,South,182,8.0,8.0,63,0.00,,,0.00,Wunderground v.1.15,2013-02-06 22:20:00,
2013-02-06 16:26:00,62.8,50.0,29.85,South,184,6.0,8.0,63,0.00,,,0.00,Wunderground v.1.15,2013-02-06 22:26:00,
2013-02-06 16:32:00,62.9,49.7,29.85,South,184,6.0,8.0,62,0.00,,,0.00,Wunderground v.1.15,2013-02-06 22:32:00,
2013-02-06 16:38:00,62.7,49.1,29.84,South,173,8.0,13.0,61,0.00,,,0.00,Wunderground v.1.15,2013-02-06 22:38:00,
2013-02-06 16:44:00,62.7,48.2,29.84,SSE,155,7.0,12.0,59,0.00,,,0.00,Wunderground v.1.15,2013-02-06 22:44:00,
2013-02-06 16:50:00,62.7,48.2,29.84,South,169,6.0,6.0,59,0.00,,,0.00,Wunderground v.1.15,2013-02-06 22:50:00,
2013-02-06 16:56:00,62.8,47.8,29.84,South,182,5.0,7.0,58,0.00,,,0.00,Wunderground v.1.15,2013-02-06 22:56:00,
2013-02-06 17:02:00,62.9,47.4,29.83,South,173,5.0,6.0,57,0.00,,,0.00,Wunderground v.1.15,2013-02-06 23:02:00,
2013-02-06 17:08:00,63.0,46.6,29.83,South,179,5.0,6.0,55,0.00,,,0.00,Wunderground v.1.15,2013-02-06 23:08:00,
2013-02-06 17:14:00,63.2,46.8,29.83,SSE,158,5.0,5.0,55,0.00,,,0.00,Wunderground v.1.15,2013-02-06 23:14:00,
2013-02-06 17:20:00,63.1,46.2,29.83,SSE,155,5.0,5.0,54,0.00,,,0.00,Wunderground v.1.15,2013-02-06 23:20:00,
2013-02-06 17:26:00,63.0,46.1,29.83,South,180,6.0,9.0,54,0.00,,,0.00,Wunderground v.1.15,2013-02-06 23:26:00,
2013-02-06 17:32:00,62.8,45.4,29.84,SSW,196,6.0,6.0,53,0.00,,,0.00,Wunderground v.1.15,2013-02-06 23:32:00,
2013-02-06 17:39:00,62.6,45.2,29.83,SSE,165,5.0,10.0,53,0.00,,,0.00,Wunderground v.1.15,2013-02-06 23:39:00,
2013-02-06 17:44:00,62.4,44.5,29.83,South,169,5.0,9.0,52,0.00,,,0.00,Wunderground v.1.15,2013-02-06 23:44:00,
2013-02-06 17:50:00,62.2,44.9,29.83,SSE,155,7.0,7.0,53,0.00,,,0.00,Wunderground v.1.15,2013-02-06 23:50:00,
2013-02-06 17:56:00,62.0,44.7,29.83,SSW,194,5.0,10.0,53,0.00,,,0.00,Wunderground v.1.15,2013-02-06 23:56:00,
2013-02-06 18:02:00,61.8,45.0,29.83,SSE,153,5.0,5.0,54,0.00,,,0.00,Wunderground v.1.15,2013-02-07 00:02:00,
2013-02-06 18:09:00,61.7,44.4,29.83,SSE,165,5.0,8.0,53,0.00,,,0.00,Wunderground v.1.15,2013-02-07 00:09:00,
2013-02-06 18:14:00,61.7,43.9,29.83,South,186,7.0,14.0,52,0.00,,,0.00,Wunderground v.1.15,2013-02-07 00:14:00,
2013-02-06 18:20:00,61.6,43.8,29.83,SSW,205,7.0,7.0,52,0.00,,,0.00,Wunderground v.1.15,2013-02-07 00:20:00,
2013-02-06 18:26:00,61.5,43.7,29.84,SSE,149,7.0,7.0,52,0.00,,,0.00,Wunderground v.1.15,2013-02-07 00:26:00,
2013-02-06 18:32:00,61.3,43.5,29.83,South,178,7.0,13.0,52,0.00,,,0.00,Wunderground v.1.15,2013-02-07 00:32:00,
2013-02-06 18:38:00,61.1,43.8,29.84,South,176,7.0,16.0,53,0.00,,,0.00,Wunderground v.1.15,2013-02-07 00:38:00,
2013-02-06 18:44:00,60.8,43.6,29.84,SSE,157,5.0,6.0,53,0.00,,,0.00,Wunderground v.1.15,2013-02-07 00:44:00,
2013-02-06 18:50:00,60.6,43.4,29.84,South,173,4.0,11.0,53,0.00,,,0.00,Wunderground v.1.15,2013-02-07 00:50:00,
2013-02-06 18:56:00,60.4,43.2,29.85,SSE,159,5.0,11.0,53,0.00,,,0.00,Wunderground v.1.15,2013-02-07 00:56:00,
2013-02-06 19:02:00,60.2,43.0,29.85,SE,138,6.0,7.0,53,0.00,,,0.00,Wunderground v.1.15,2013-02-07 01:02:00,
2013-02-06 19:09:00,59.8,42.6,29.84,SSE,153,5.0,10.0,53,0.00,,,0.00,Wunderground v.1.15,2013-02-07 01:09:00,
2013-02-06 19:14:00,59.6,42.9,29.84,South,172,6.0,14.0,54,0.00,,,0.00,Wunderground v.1.15,2013-02-07 01:14:00,
2013-02-06 19:20:00,59.3,42.6,29.84,South,190,5.0,5.0,54,0.00,,,0.00,Wunderground v.1.15,2013-02-07 01:20:00,
2013-02-06 19:26:00,59.0,42.8,29.84,South,185,5.0,6.0,55,0.00,,,0.00,Wunderground v.1.15,2013-02-07 01:26:00,
2013-02-06 19:32:00,59.0,42.8,29.85,SSE,150,4.0,5.0,55,0.00,,,0.00,Wunderground v.1.15,2013-02-07 01:32:00,
2013-02-06 19:39:00,59.0,42.8,29.85,SSW,202,3.0,5.0,55,0.00,,,0.00,Wunderground v.1.15,2013-02-07 01:39:00,
2013-02-06 19:44:00,58.9,42.8,29.85,South,169,4.0,7.0,55,0.00,,,0.00,Wunderground v.1.15,2013-02-07 01:44:00,
2013-02-06 19:50:00,58.7,42.1,29.85,South,175,5.0,5.0,54,0.00,,,0.00,Wunderground v.1.15,2013-02-07 01:50:00,
2013-02-06 19:56:00,58.5,42.4,29.85,South,180,6.0,7.0,55,0.00,,,0.00,Wunderground v.1.15,2013-02-07 01:56:00,
2013-02-06 20:02:00,58.4,42.3,29.85,SSE,167,6.0,6.0,55,0.00,,,0.00,Wunderground v.1.15,2013-02-07 02:02:00,
2013-02-06 20:09:00,58.2,42.1,29.85,SSE,161,4.0,6.0,55,0.00,,,0.00,Wunderground v.1.15,2013-02-07 02:09:00,
2013-02-06 20:14:00,58.0,42.4,29.85,SSE,149,5.0,10.0,56,0.00,,,0.00,Wunderground v.1.15,2013-02-07 02:14:00,
2013-02-06 20:20:00,57.8,42.2,29.85,South,182,6.0,7.0,56,0.00,,,0.00,Wunderground v.1.15,2013-02-07 02:20:00,
2013-02-06 20:26:00,57.6,42.0,29.85,SSE,164,5.0,7.0,56,0.00,,,0.00,Wunderground v.1.15,2013-02-07 02:26:00,
2013-02-06 20:34:00,57.4,41.8,29.85,South,188,5.0,5.0,56,0.00,,,0.00,Wunderground v.1.15,2013-02-07 02:34:00,
2013-02-06 20:40:00,57.2,41.6,29.85,South,180,5.0,7.0,56,0.00,,,0.00,Wunderground v.1.15,2013-02-07 02:40:00,
2013-02-06 20:46:00,57.1,41.5,29.85,SSE,155,5.0,12.0,56,0.00,,,0.00,Wunderground v.1.15,2013-02-07 02:46:00,
2013-02-06 20:52:00,57.1,41.5,29.85,South,172,6.0,12.0,56,0.00,,,0.00,Wunderground v.1.15,2013-02-07 02:52:00,
2013-02-06 20:59:00,56.9,41.4,29.85,South,184,4.0,6.0,56,0.00,,,0.00,Wunderground v.1.15,2013-02-07 02:59:00,
2013-02-06 21:04:00,56.8,41.3,29.86,South,182,4.0,6.0,56,0.00,,,0.00,Wunderground v.1.15,2013-02-07 03:04:00,
2013-02-06 21:10:00,56.6,41.1,29.86,South,184,4.0,5.0,56,0.00,,,0.00,Wunderground v.1.15,2013-02-07 03:10:00,
2013-02-06 21:16:00,56.4,40.9,29.86,SE,142,4.0,5.0,56,0.00,,,0.00,Wunderground v.1.15,2013-02-07 03:16:00,
2013-02-06 21:22:00,56.3,40.3,29.85,SE,131,4.0,4.0,55,0.00,,,0.00,Wunderground v.1.15,2013-02-07 03:22:00,
2013-02-06 21:29:00,55.9,40.0,29.86,SSE,165,4.0,6.0,55,0.00,,,0.00,Wunderground v.1.15,2013-02-07 03:29:00,
2013-02-06 21:34:00,55.8,40.3,29.86,South,186,4.0,6.0,56,0.00,,,0.00,Wunderground v.1.15,2013-02-07 03:34:00,
2013-02-06 21:40:00,55.6,40.6,29.86,SSW,197,5.0,7.0,57,0.00,,,0.00,Wunderground v.1.15,2013-02-07 03:40:00,
2013-02-06 21:46:00,55.4,40.9,29.86,ESE,105,6.0,11.0,58,0.00,,,0.00,Wunderground v.1.15,2013-02-07 03:46:00,
2013-02-06 21:52:00,55.3,41.2,29.85,South,180,6.0,6.0,59,0.00,,,0.00,Wunderground v.1.15,2013-02-07 03:52:00,
2013-02-06 21:59:00,55.1,41.5,29.86,South,185,7.0,9.0,60,0.00,,,0.00,Wunderground v.1.15,2013-02-07 03:59:00,
2013-02-06 22:04:00,55.1,41.5,29.86,SSW,193,8.0,13.0,60,0.00,,,0.00,Wunderground v.1.15,2013-02-07 04:04:00,
2013-02-06 22:10:00,55.1,41.9,29.86,South,186,7.0,7.0,61,0.00,,,0.00,Wunderground v.1.15,2013-02-07 04:10:00,
2013-02-06 22:16:00,55.0,42.2,29.86,South,176,7.0,8.0,62,0.00,,,0.00,Wunderground v.1.15,2013-02-07 04:16:00,
2013-02-06 22:22:00,54.9,42.1,29.86,South,170,5.0,6.0,62,0.00,,,0.00,Wunderground v.1.15,2013-02-07 04:22:00,
2013-02-06 22:29:00,54.8,42.4,29.86,South,169,5.0,7.0,63,0.00,,,0.00,Wunderground v.1.15,2013-02-07 04:29:00,
2013-02-06 22:34:00,54.7,42.3,29.86,SSE,148,4.0,11.0,63,0.00,,,0.00,Wunderground v.1.15,2013-02-07 04:34:00,
2013-02-06 22:40:00,54.5,42.6,29.85,South,175,4.0,4.0,64,0.00,,,0.00,Wunderground v.1.15,2013-02-07 04:40:00,
2013-02-06 22:46:00,54.4,42.5,29.86,South,176,5.0,9.0,64,0.00,,,0.00,Wunderground v.1.15,2013-02-07 04:46:00,
2013-02-06 22:52:00,54.2,42.7,29.86,South,179,5.0,8.0,65,0.00,,,0.00,Wunderground v.1.15,2013-02-07 04:52:00,
2013-02-06 22:59:00,54.0,42.5,29.86,SE,135,5.0,8.0,65,0.00,,,0.00,Wunderground v.1.15,2013-02-07 04:59:00,
2013-02-06 23:00:00,54.0,42.5,29.86,SSE,159,5.0,5.0,65,0.00,,,0.00,Wunderground v.1.15,2013-02-07 05:00:00,
2013-02-06 23:06:00,53.9,42.8,29.86,South,185,4.0,5.0,66,0.00,,,0.00,Wunderground v.1.15,2013-02-07 05:06:00,
2013-02-06 23:12:00,53.8,42.7,29.86,South,186,5.0,7.0,66,0.00,,,0.00,Wunderground v.1.15,2013-02-07 05:12:00,
2013-02-06 23:16:00,53.7,42.6,29.86,South,182,5.0,7.0,66,0.00,,,0.00,Wunderground v.1.15,2013-02-07 05:16:00,
2013-02-06 23:19:00,53.7,43.0,29.86,SSW,199,5.0,11.0,67,0.00,,,0.00,Wunderground v.1.15,2013-02-07 05:19:00,
2013-02-06 23:24:00,53.7,43.0,29.86,South,173,5.0,7.0,67,0.00,,,0.00,Wunderground v.1.15,2013-02-07 05:24:00,
2013-02-06 23:30:00,53.6,43.3,29.86,South,175,5.0,6.0,68,0.00,,,0.00,Wunderground v.1.15,2013-02-07 05:30:00,
2013-02-06 23:36:00,53.6,43.3,29.86,SSE,161,6.0,12.0,68,0.00,,,0.00,Wunderground v.1.15,2013-02-07 05:36:00,
2013-02-06 23:42:00,53.6,43.7,29.86,South,171,5.0,6.0,69,0.00,,,0.00,Wunderground v.1.15,2013-02-07 05:42:00,
2013-02-06 23:49:00,53.5,43.6,29.86,SSE,149,4.0,6.0,69,0.00,,,0.00,Wunderground v.1.15,2013-02-07 05:49:00,
2013-02-06 23:54:00,53.5,44.0,29.85,SSE,165,4.0,9.0,70,0.00,,,0.00,Wunderground v.1.15,2013-02-07 05:54:00,